STARLINK-30080, 56705

Orbit data source: Space-Track

STARLINK-30080, 56705 is a payload satellite owned by SpaceX/Seattle (US) in LEO that was launched on Fri, 19 May 2023 UTC via an FALCON 9 launch vehicle from the Air Force Eastern Test Range (AFETR). Payload-class satellites include a variety of spacecraft equipped with specific instruments for various scientific and technological missions. These include communications satellites like Starlink; space stations such as the ISS; scientific satellites like the Hubble; Earth observation satellites from companies like Planet Labs, Umbra, and HawkEye 360; GPS; miniature CubeSats for education and research; and military/defense satellites.

Loading next visibility...
Identifier
56705, 2023-067T
Orbit
LEO
Country
Flag of USUS
Related business
Manufacturer
SpaceX/Seattle
Mission
Operational Commercial Communications
Bus & Motor
STARLINK V2M, Unknown motor
Mass
730 kg wet, ~700 kg dry
Launch date (UTC)
2023-05-19 (3 years ago)
Launch vehicle
FALCON 9
Launch site
Air Force Eastern Test Range (AFETR)
Object type
Payload
Rocket body
Debris
Shape & HBR
Box + 2 Pan, 17.7 m
Radar Cross Section
33.884 m², Large (>1 m²)

Expand to show TLE details & history
Last TLE update: 2 days ago

TLE from 2 days ago
0 STARLINK-30080
1 56705U 23067T   26171.02954679  .00000255  00000-0  18787-4 0  9997
2 56705  43.0014  45.0981 0000990 279.0959  80.9780 15.27577132171442
Epoch: 2026-06-20T00:42Z
TLE epoch observation values (Epoch: 2026-06-20T00:42:32.842Z)
Latitude
-0.00007°
Longitude
126.21115°
Altitude
482.727 km
Speed
7.626 km/s
True Right ascension
03h 00m 23s
True Declination
0° 00' 00"
Sunlit
Object was in daylight at epoch
Visualization orbit readout
Latitude
Unknown
Longitude
Unknown
Altitude
Unknown
Speed
Unknown
Apparent Right ascension
Unknown
Apparent Declination
Unknown
Sunlit
N/A
Visualization observer readout
Local Sidereal Time
21:24:05
Azimuth
Unknown
Elevation
Unknown
Doppler factor
Unknown
Orbital elements
Apogee altitude
485.682 km
Perigee altitude
484.323 km
Semi-major axis
6,863.14 km
Eccentricity
0.0001
Inclination
43.0014°
RAAN
45.0981°
Arg. of periapsis
279.0959°
True anomaly
80.9892°
Mean anomaly
80.978°
Eccentric anomaly
80.9836°
Mean motion
3.81732 °/min
Orbital period
94.31 mins
BSTAR
0.000018787
Loading maneuver chart data...
Computing Atmospheric mass density...
Loading historical data...
Loading historical data...
Loading historical data...
Loading historical data...
Loading historical data...
Loading historical data...
Loading historical data...

Documentation

Showing up to 5 results
|